[[{"header":{"parameterUnit":"m.s-1","parameterCategory":1,"la1":30.2991,"la2":30.254,"lo1":-89.0895,"lo2":-89.0444,"dy":0.0017,"dx":0.0017,"nx":28,"ny":28,"refTime":"2024-06-19T09:00:00:Z","depth":0,"parameterNumber":2,"parameterNumberName":"U-component_of_WINDS"},"data":[0,0,0,0,0,0,0,0,0,0,0,0,0,0,0,0,0,0,0,0,0,0,0,0,0,0,0,0,0,0,0,0,0,0,0,0,0,0,0,0,0,0,0,0,0,0,0,0,0,0,0,0,0,0,0,0,0,0,-8.0205,-8.0205,0,-8.0148,-8.0147,-8.0147,-7.9919,-7.9914,-7.9909,-7.9904,-7.985,-7.9853,-7.9856,0,0,0,0,0,0,0,0,0,0,0,0,0,-8.0122,-8.0125,-8.0205,-8.0204,-8.0204,-8.0148,-8.0147,-8.0146,-7.992,-7.9914,-7.9908,-7.9902,-7.9848,-7.9852,-7.9857,0,0,0,0,0,0,0,0,0,0,0,0,0,-8.0121,-8.0126,-8.0205,-8.0084,-8.0073,-8.0148,-8.0147,-8.0146,-7.9922,-7.9914,-7.9906,-7.9899,-7.9847,-7.9852,-7.9857,-8.0046,0,0,-7.9873,-7.9875,0,0,0,0,0,0,0,0,-8.0122,-8.0125,-8.0103,-8.0093,-8.008,-8.0032,-8.0098,-8.0113,-7.9924,-7.9979,-7.9904,-7.9895,-7.9917,-7.9916,-7.9923,-8.0044,-8.0041,-7.9873,-7.9877,-7.9879,-7.988,0,0,0,0,0,0,0,-8.0122,-8.0126,-8.0182,-8.0103,-8.0089,-8.0034,-8.0025,-8.01,-7.9993,-7.9974,-7.9957,-7.9953,-7.9909,-7.9918,-7.992,-8.0041,-7.9873,-7.9878,-7.9881,-7.9883,-8.0314,-8.0322,0,0,0,0,0,0,-8.0139,-8.0127,-8.0184,-8.0181,-8.0082,-8.0042,-8.0032,-8.0056,-7.9992,-7.9974,-7.996,-7.9943,-7.9913,-7.9914,-7.9917,-8.0134,-7.9879,-7.9884,-7.9886,-8.0306,-8.0316,-8.0325,0,0,0,0,0,0,-8.0138,-8.0146,-8.0187,-8.015,-8.015,-8.0051,-8.008,-8.0059,-8.0067,-7.9981,-7.9961,-7.9988,-7.9907,-7.991,-8.0016,-8.0129,-7.9886,-7.9891,-8.0296,-8.0309,-8.0321,-8.057,0,0,0,0,0,0,-8.0137,-8.0147,-8.0217,-8.0153,-8.0153,-8.0286,-8.0087,-8.0063,-8.0076,-8.0053,-8.0002,-7.9987,-7.9901,-8.0009,-8.0021,-8.0131,-7.9895,-8.0286,-8.0302,-8.0317,-8.0551,-8.059,-8.0622,0,0,0,0,0,-8.0134,-8.029,-8.0222,-8.023,-8.0239,-8.0293,-8.0293,-8.019,-8.0086,-8.0156,-8.0101,-7.9988,-8.0115,-8.0022,-8.0033,-8.0147,-8.0278,-8.0297,-8.0316,-8.0535,-8.0582,-8.0622,0,0,0,0,0,0,-8.0372,-8.028,-8.0203,-8.0342,-8.0327,-8.0254,-8.0339,-8.0243,-8.0258,-8.0236,-8.0109,-8.01,-8.0225,-8.0196,-8.0094,-8.0327,-8.0177,-8.02,-8.0341,-8.0384,-8.0419,-8.0423,-7.9899,0,0,0,0,0,-8.044,-8.0491,-8.0408,-8.054,-8.0536,-8.044,-8.0459,-8.0382,-8.0361,-8.0354,-8.0306,-8.0292,-8.0328,-8.0355,-8.0383,-8.0546,-8.0532,-8.063,-8.0666,-8.0696,-8.0716,-8.0801,-8.0843,-8.0387,-8.0387,-8.0387,0,0,-8.0583,-8.0539,-8.0578,-8.0586,-8.0565,-8.0621,-8.0436,-8.0503,-8.0544,-8.0364,-8.0461,-8.0426,-8.0402,-8.0537,-8.0595,-8.0517,-8.0839,-8.072,-8.0744,-8.0748,-8.0824,-8.0868,-8.0906,-8.04,-8.0398,-8.0396,0,0,-8.087,-8.0842,-8.0948,-8.0931,-8.0901,-8.0836,-8.0862,-8.0804,-8.0773,-8.0868,-8.0735,-8.0782,-8.0847,-8.0835,-8.0838,-8.1123,-8.102,-8.1136,-8.1321,-8.1405,-8.1441,-8.1472,-8.1574,-8.1612,-8.1157,-8.1157,-8.1158,0,-8.1051,-8.1129,-8.1015,-8.1091,-8.1099,-8.0938,-8.1045,-8.1034,-8.1017,-8.1026,-8.094,-8.1018,-8.099,-8.1121,-8.119,-8.1198,-8.1224,-8.1141,-8.1445,-8.1475,-8.1503,-8.1598,-8.1637,-8.1171,-8.117,-8.1168,-8.1167,0,-8.1353,-8.141,-8.1499,-8.1484,-8.1502,-8.1594,-8.1495,-8.1527,-8.1448,-8.1393,-8.1492,-8.1454,-8.1472,-8.1497,-8.1421,-8.1618,-8.1571,-8.1467,-8.1314,-8.1562,-8.165,-8.1686,-8.1192,-8.1187,-8.1183,-8.1179,0,0,-8.1788,-8.1709,-8.1744,-8.1735,-8.1691,-8.1733,-8.1818,-8.1834,-8.1864,-8.1858,-8.1926,-8.1985,-8.1889,-8.1892,-8.1814,-8.1888,-8.2116,-8.1774,-8.1772,-8.1839,-8.233,-8.2408,-8.2453,-8.2048,-8.2054,-8.2059,-8.2332,0,-8.2062,-8.22,-8.2101,-8.2257,-8.2308,-8.2156,-8.223,-8.2212,-8.2163,-8.2201,-8.2147,-8.2191,-8.206,-8.2061,-8.2128,-8.2074,-8.2213,-8.2053,-8.2111,-8.2115,-8.2121,-8.2498,-8.258,-8.284,-8.2366,-8.2371,-8.2376,0,-8.2399,-8.2406,-8.2568,-8.2512,-8.253,-8.2598,-8.2605,-8.2642,-8.2619,-8.2578,-8.2583,-8.2486,-8.2566,-8.2417,-8.2527,-8.2421,-8.2439,-8.2417,-8.2424,-8.2425,-8.226,-8.2509,-8.292,-8.2959,-8.2428,-8.2424,-8.242,0,-8.2701,-8.2751,-8.2853,-8.285,-8.2789,-8.284,-8.2817,-8.2786,-8.2802,-8.2809,-8.2819,-8.2836,-8.2846,-8.2863,-8.2773,-8.2672,-8.2896,-8.2738,-8.2865,-8.2868,-8.2918,-8.2916,-8.3337,-8.2931,-8.2931,-8.293,-8.2929,0,-8.3016,-8.3121,-8.2987,-8.305,-8.3163,-8.3049,-8.3164,-8.3125,-8.3099,-8.3153,-8.3024,-8.3078,-8.2957,-8.2999,-8.293,-8.3032,-8.3037,-8.3008,-8.2988,-8.3019,-8.3023,-8.3029,-8.3008,-8.294,-8.2938,-8.2936,-8.2934,0,-8.3371,-8.3286,-8.3387,-8.3321,-8.3306,-8.3393,-8.3336,-8.3393,-8.3335,-8.3406,-8.3416,-8.3327,-8.3369,-8.3282,-8.3313,-8.3267,-8.3411,-8.3363,-8.3419,-8.3404,-8.3536,-8.3525,-8.3975,-8.4028,-8.3589,-8.3594,-8.3597,0,-8.3578,-8.3655,-8.3596,-8.3622,-8.3606,-8.365,-8.3665,-8.3556,-8.3578,-8.3558,-8.3618,-8.3649,-8.3668,-8.3744,-8.3684,-8.3707,-8.3659,-8.3815,-8.3661,-8.369,-8.3661,-8.3657,-8.3665,-8.3847,-8.3852,-8.3857,-8.386,0,-8.3954,-8.3908,-8.3934,-8.3948,-8.3969,-8.3975,-8.3971,-8.4,-8.3884,-8.3916,-8.3957,-8.3972,-8.4003,-8.4037,-8.4047,-8.4024,-8.3925,-8.3909,-8.3939,-8.3972,-8.4,-8.3986,-8.3504,-8.3899,-8.3895,-8.3892,-8.389,-8.3889,-8.4241,-8.4302,-8.427,-8.4304,-8.4289,-8.4289,-8.4338,-8.4287,-8.4319,-8.4334,-8.4269,-8.4326,-8.4301,-8.4303,-8.4292,-8.4335,-8.4265,-8.431,-8.4321,-8.4333,-8.4355,-8.3994,-8.4337,-8.4336,-8.4335,-8.4334,-8.4333,0,-8.461,-8.4582,-8.4614,-8.4612,-8.464,-8.4541,-8.4532,-8.4562,-8.4613,-8.4598,-8.4619,-8.4667,-8.47,-8.4642,-8.4665,-8.4711,-8.4666,-8.4721,-8.4716,-8.4713,-8.4416,-8.4387,-8.4757,-8.4757,-8.4757,-8.4757,-8.4757,-8.4757,-8.4805,-8.4903,-8.4853,-8.4943,-8.4914,-8.4967,-8.497,-8.497,-8.4957,-8.5016,-8.5041,-8.5003,-8.4971,-8.4991,-8.5017,-8.4999,-8.5013,-8.5085,-8.5052,-8.4775,-8.4734,-8.4694,-8.4666,-8.5089,-8.5089,-8.5344,-8.5347,-8.5349]},{"header":{"parameterUnit":"m.s-1","parameterCategory":1,"la1":30.2991,"la2":30.254,"lo1":-89.0895,"lo2":-89.0444,"dy":0.0017,"dx":0.0017,"nx":28,"ny":28,"refTime":"2024-06-19T09:00:00:Z","depth":0,"parameterNumber":3,"parameterNumberName":"V-component_of_WINDS"},"data":[0,0,0,0,0,0,0,0,0,0,0,0,0,0,0,0,0,0,0,0,0,0,0,0,0,0,0,0,0,0,0,0,0,0,0,0,0,0,0,0,0,0,0,0,0,0,0,0,0,0,0,0,0,0,0,0,0,0,-1.1718,-1.1718,0,-1.1753,-1.1753,-1.1754,-1.1757,-1.1757,-1.1757,-1.1756,-1.1795,-1.1796,-1.1797,0,0,0,0,0,0,0,0,0,0,0,0,0,-1.1654,-1.1656,-1.1717,-1.1718,-1.1718,-1.1753,-1.1753,-1.1754,-1.1757,-1.1757,-1.1757,-1.1756,-1.1794,-1.1796,-1.1798,0,0,0,0,0,0,0,0,0,0,0,0,0,-1.1685,-1.1656,-1.1717,-1.1724,-1.1725,-1.1753,-1.1753,-1.1754,-1.1758,-1.1757,-1.1756,-1.1756,-1.1794,-1.1796,-1.1798,-1.1821,0,0,-1.1804,-1.1805,0,0,0,0,0,0,0,0,-1.1683,-1.1687,-1.1723,-1.1724,-1.1725,-1.175,-1.1745,-1.1777,-1.1758,-1.1745,-1.1756,-1.1756,-1.1781,-1.1784,-1.1792,-1.1823,-1.1825,-1.1804,-1.1806,-1.1806,-1.1807,0,0,0,0,0,0,0,-1.1681,-1.1686,-1.1732,-1.1723,-1.1725,-1.1726,-1.173,-1.1751,-1.1766,-1.1746,-1.1747,-1.1751,-1.1781,-1.179,-1.1792,-1.1826,-1.1804,-1.1806,-1.1807,-1.1808,-1.1877,-1.1878,0,0,0,0,0,0,-1.1677,-1.1684,-1.173,-1.1733,-1.1702,-1.1728,-1.1732,-1.1743,-1.1765,-1.1768,-1.1751,-1.1751,-1.1786,-1.179,-1.1794,-1.1822,-1.1806,-1.1808,-1.1809,-1.1877,-1.1877,-1.1878,0,0,0,0,0,0,-1.1676,-1.1682,-1.1729,-1.1708,-1.1715,-1.1729,-1.1741,-1.1744,-1.1752,-1.1769,-1.1772,-1.1757,-1.1786,-1.1791,-1.1814,-1.1824,-1.1809,-1.1811,-1.1876,-1.1877,-1.1878,-1.188,0,0,0,0,0,0,-1.1674,-1.1681,-1.169,-1.1709,-1.1716,-1.1748,-1.1742,-1.1745,-1.1755,-1.1755,-1.1775,-1.1778,-1.1786,-1.1811,-1.1816,-1.1826,-1.1813,-1.1875,-1.1876,-1.1877,-1.1879,-1.1881,-1.1882,0,0,0,0,0,-1.1672,-1.169,-1.1691,-1.1696,-1.1727,-1.1749,-1.1753,-1.1761,-1.1756,-1.1765,-1.1776,-1.1778,-1.1822,-1.1813,-1.1819,-1.183,-1.1875,-1.1876,-1.1877,-1.1878,-1.188,-1.1882,0,0,0,0,0,0,-1.1674,-1.1693,-1.1693,-1.1718,-1.1732,-1.1749,-1.1762,-1.1763,-1.1779,-1.1779,-1.1788,-1.1793,-1.1815,-1.1825,-1.1816,-1.1853,-1.1848,-1.185,-1.1846,-1.1849,-1.185,-1.1847,-1.1814,0,0,0,0,0,-1.1677,-1.1692,-1.1708,-1.1728,-1.1735,-1.1747,-1.1757,-1.1761,-1.1777,-1.1783,-1.1795,-1.181,-1.1827,-1.1838,-1.1855,-1.188,-1.1884,-1.189,-1.1892,-1.1893,-1.1895,-1.1908,-1.1911,-1.1882,-1.1882,-1.1882,0,0,-1.1683,-1.1696,-1.1705,-1.1729,-1.174,-1.1756,-1.1752,-1.177,-1.1782,-1.1786,-1.1808,-1.1817,-1.1835,-1.1858,-1.187,-1.1867,-1.1904,-1.1895,-1.1896,-1.1897,-1.191,-1.1913,-1.1915,-1.1883,-1.1883,-1.1883,0,0,-1.1704,-1.1715,-1.1732,-1.1743,-1.1759,-1.1767,-1.1771,-1.1788,-1.1794,-1.1817,-1.182,-1.1834,-1.1864,-1.1876,-1.1886,-1.1909,-1.1911,-1.1914,-1.1922,-1.1935,-1.1937,-1.1939,-1.1947,-1.195,-1.1916,-1.1916,-1.1916,0,-1.171,-1.1734,-1.1741,-1.1758,-1.1768,-1.1771,-1.1788,-1.1799,-1.1821,-1.1828,-1.1824,-1.186,-1.1872,-1.1899,-1.1904,-1.1912,-1.1917,-1.1912,-1.1936,-1.1938,-1.194,-1.1948,-1.1951,-1.1916,-1.1916,-1.1916,-1.1916,0,-1.1741,-1.1758,-1.177,-1.1789,-1.18,-1.1818,-1.1827,-1.1838,-1.1841,-1.1849,-1.1871,-1.1885,-1.1905,-1.1911,-1.1915,-1.1938,-1.1936,-1.1934,-1.1929,-1.1943,-1.195,-1.1953,-1.1917,-1.1917,-1.1917,-1.1917,0,0,-1.1765,-1.1786,-1.179,-1.1799,-1.1816,-1.1829,-1.1846,-1.1864,-1.1873,-1.1887,-1.1902,-1.1926,-1.1924,-1.1935,-1.1941,-1.1952,-1.1968,-1.1949,-1.195,-1.1952,-1.1993,-1.1994,-1.1997,-1.1969,-1.197,-1.197,-1.1992,0,-1.1787,-1.1817,-1.1822,-1.1848,-1.1863,-1.1865,-1.188,-1.1893,-1.19,-1.1914,-1.1923,-1.194,-1.1936,-1.1943,-1.1954,-1.1964,-1.1977,-1.1962,-1.1983,-1.1984,-1.1979,-1.2001,-1.2002,-1.2022,-1.1994,-1.1995,-1.1995,0,-1.1817,-1.1831,-1.1858,-1.1872,-1.1878,-1.1891,-1.1907,-1.1921,-1.1935,-1.1939,-1.1951,-1.1955,-1.1973,-1.1966,-1.199,-1.198,-1.1989,-1.1995,-1.1996,-1.1998,-1.1991,-1.2004,-1.2028,-1.2031,-1.2,-1.2,-1.1999,0,-1.1831,-1.1856,-1.1875,-1.1882,-1.1899,-1.1908,-1.1916,-1.193,-1.1939,-1.1953,-1.196,-1.1976,-1.1985,-1.1998,-1.2006,-1.2,-1.203,-1.2024,-1.2034,-1.2034,-1.2041,-1.204,-1.2067,-1.2047,-1.2046,-1.2046,-1.2046,0,-1.1855,-1.1871,-1.1881,-1.1893,-1.1911,-1.1917,-1.1935,-1.1943,-1.1955,-1.1968,-1.1972,-1.1984,-1.1994,-1.2008,-1.2014,-1.2033,-1.2038,-1.2042,-1.2044,-1.2042,-1.2041,-1.2048,-1.2047,-1.2047,-1.2047,-1.2047,-1.2047,0,-1.1874,-1.1881,-1.1902,-1.1916,-1.192,-1.1932,-1.1945,-1.1956,-1.1963,-1.198,-1.1984,-1.1995,-1.2012,-1.2021,-1.2042,-1.2046,-1.2068,-1.2069,-1.2063,-1.2063,-1.2073,-1.2072,-1.2104,-1.2109,-1.2086,-1.2086,-1.2086,0,-1.1889,-1.1901,-1.1916,-1.1924,-1.1932,-1.1946,-1.1955,-1.1962,-1.1972,-1.1988,-1.1997,-1.2014,-1.2027,-1.2053,-1.2064,-1.208,-1.2081,-1.2091,-1.2084,-1.2081,-1.2081,-1.208,-1.2081,-1.2093,-1.2093,-1.2093,-1.2093,0,-1.1914,-1.1916,-1.193,-1.1943,-1.1954,-1.1966,-1.1978,-1.1985,-1.1993,-1.2004,-1.202,-1.2031,-1.2051,-1.2067,-1.2084,-1.2093,-1.2094,-1.2096,-1.2099,-1.2097,-1.2093,-1.2095,-1.2066,-1.2095,-1.2095,-1.2095,-1.2095,-1.2095,-1.1931,-1.1941,-1.1953,-1.1967,-1.1976,-1.1986,-1.1997,-1.2005,-1.2018,-1.2035,-1.2038,-1.2055,-1.2068,-1.209,-1.2099,-1.2113,-1.2111,-1.2116,-1.2117,-1.2118,-1.2118,-1.209,-1.2116,-1.2116,-1.2116,-1.2116,-1.2116,0,-1.1956,-1.1963,-1.1976,-1.1991,-1.2002,-1.2002,-1.2014,-1.2023,-1.2038,-1.2049,-1.2062,-1.208,-1.2096,-1.2107,-1.2122,-1.2131,-1.2132,-1.2135,-1.2134,-1.2136,-1.2119,-1.2114,-1.2134,-1.2134,-1.2134,-1.2134,-1.2134,-1.2134,-1.197,-1.1988,-1.1991,-1.2013,-1.202,-1.2036,-1.2043,-1.2053,-1.2062,-1.2081,-1.2094,-1.21,-1.2111,-1.2128,-1.2142,-1.2145,-1.215,-1.2153,-1.2156,-1.2139,-1.2138,-1.2136,-1.2131,-1.2154,-1.2154,-1.2172,-1.2172,-1.2172]}]]